Погода в Клаипеде

Поиск расширенной информации на нашем сайте:

Полезная информация:

Новости сайта



02.01.2020
Опубликован Долгосрочный прогноз погоды по городам России и ближнего зарубежья на январь 2020 года.
Карты: Прогноз на январь и февраль 2020 года, Сравнение прогнозируемой аномалии приземной температуры воздуха на январь 2020 года по разным моделям.




Погода в Клаипеде - сегодня

Время (UTC), дата Ветер
(°,м/с) 
Видим.   Явления Облачность Т
(°С)
Тd
(°С)
f(%) Тe
(°С)
Pmin
(гПа)
dP
(гПа)
Po
(мм)
O2
(г/м3)
Тmin Tmax R s Состояние
почвы
06 27.11.21 060 (СВ) 2-4{05}  7000 м  дымка  8/3 600 м средняя 
[Sc|Ac und]
+0.9 -0.3 92 994.9  -0.3  746  299  +0.1    0.0    влажная 
09 27.11.21 030 (СВ) 2-4{05}  3900 м  слаб. дождь  10/10 210 м 
[Frnb|Ns]
+1.5 +0.5 93 +1  995.1  0.2  746  299           
12 27.11.21 010 (С) 3-6{07}  5000 м  слаб. дождь  10/10 1000 м 
[Frnb|Ns]
+1.8 +0.9 94 994.5  -0.6  745  298      0.4     
15 27.11.21 030 (СВ) 2-5{07}  5000 м  слаб. дождь{морось}  10/10 600 м 
[Frnb|Ns]
+1.6 +0.9 95 +1  995.3  0.8  746  299           
18 27.11.21 020 (С) 2-6{06}  5000 м  слаб. дождь{морось}  10/10 1000 м 
[Frnb|Ns]
+1.3 +0.6 95 +1  996  0.7  746  299    +1.9     
21 27.11.21 060 (СВ) 2-4{06}  20000 м  {дождь}  6/6 180 м 
[St]
+0.6 +0 96 996.5  0.5  747  300           
00 28.11.21 тихо () -0{05}  8000 м  дымка{дождь}  10/10 960 м 
[Sc]
-0.2 -0.5 98 -0  996.8  0.3  747  301      0.0     
03 28.11.21 090 (В) 1-2{03}  10 км    8/0 средняя 
[Ac lent]
+0 -0.3 98 +1  996.7  0.1  747  301           
06 28.11.21 090 (В) 2-3{04}  7000 м  в посл. час ливневой снег  10/10 840 м 
[Cu Sc]
+0.3 -0.1 97 997.1  0.4  747  301  -0.3    0.0    влажная 
09 28.11.21 110 (В) 3-4{05}  3000 м  слаб. ливневой дождь со снегом  10/10 210 м кучево-дожд. 
[Cb cap]
+0.7 +0.3 97 -1  997.8  0.7  748  300           
12 28.11.21 150 (ЮВ) 3-5{11}  5000 м  в посл. час ливневой дождь  10/10 500 м 
[Cu Sc]
+2.6 +1.7 94 +1  998.3  0.5  748  298         
15 28.11.21 140 (ЮВ) 2-5{08}  6000 м  дымка  10/10 240 м 
[St]
+2 +0.8 92 +1  999.2  0.9  749  299           
18 28.11.21 130 (ЮВ) 2-4{06}  7000 м  дымка  10/10 330 м 
[St]
+1.9 +0.6 91 +1  999.7  0.5  749  300    +3.4     
21 28.11.21 090 (В) 2-4{06}  11000 м    10/10 270 м 
[St]
+1.2 -0.3 90 +1  999.9  0.2  749  301           
00 29.11.21 080 (В) 2-5{07}  13000 м    10/10 400 м 
[Sc]
+0.6 -0.7 91 998.6  -1.3  748  301           
03 29.11.21 060 (СВ) 3-7{07}  1700 м  слаб. снег{дождь}  10/10 30 м 
[Frnb|Ns]
+0.2 -0.4 96 -2  997.5  -1.1  747  301           
06 29.11.21 030 (СВ) 3-6{08}  1200 м  слаб. снег{дождь}  10/10 180 м 
[Frnb|Ns]
+0.1 -0.3 97 -2  996.4  -1.1  747  301  +0.1     
09 29.11.21 030 (СВ) 4-8{08}  2700 м  слаб. снег  10/10 330 м 
[Frnb|Ns]
+0.1 -0.2 98 -2  995.6  -0.8  746  300           
12 29.11.21 030 (СВ) 4-8{08}  2200 м  слаб. снег{дождь}  10/10 200 м 
[Frnb|Ns]
+0.3 -0.4 95 -2  994.2  -1.4  745  300       
15 29.11.21 200 (Ю) 4-7{08}  19000 м  слаб. дождь{снег}  10/10 300 м 
[Frnb|Ns]
+0.3 -0.6 94 -2  994  -0.2  745  300           
18 29.11.21 350 (С) 4-7{09}  20000 м  {снег, дождь}  10/0 средняя 
[Ac und]
+0.2 -1.7 87 -2  994  745  300    +0.4   
21 29.11.21 160 (Ю) 4-11{11}  20000 м    8/6 600 м средняя 
[Cu med, cong|Ac trans]
+0 -2.1 86 -2  994.1  -0.1  745  300           
00 30.11.21 100 (В) 2-6{11}  20000 м  в посл. час ливневой снег  10/10 1300 м 
[Sc]
-0.4 -1.6 92 -1  994.3  0.2  745  301      0.0   
03 30.11.21 310 (СЗ) 8-15{15}  20000 м  {ливн. осадки}  10/10 1500 м 
[Sc]
+3.1 -2.8 65 993.9  -0.4  745  297           
06 30.11.21 310 (СЗ) 6-12{14}  20000 м  {ливн. осадки}  9/9 1170 м 
[Sc]
+1.7 -5.3 60 -1  993.6  -0.3  745  299  -0.8    0.1   
Время (UTC), дата Ветер
(°,м/с) 
Видим.   Явления Облачность Т
(°С)
Тd
(°С)
f(%) Тe
(°С)
Pmin
(гПа)
dP
(гПа)
Po
(мм)
O2
(г/м3)
Тmin Tmax R s Состояние
почвы

Для получения пояснительной информации подведите курсор к названию столбца.

ПОГОДА в Клаипеде - архив

Всё, что Вы хотите узнать о погоде в Клаипеде - удобно и подробно!

Выберите нужную дату (начиная с 1 января 2019* года) и нажмите кнопку "Найти".
Будут отображены архивные сводки погоды по пункту Клаипеда, начиная с указанной даты.


Отображать данные в формате CSV (для использования в таблицах Excel)


Внимание! Наш архив погоды предназначен исключительно для личного некоммерческого использования в познавательных целях. Если Вам необходимы официальные справки о состоянии погоды (для производственных, юридических, коммерческих и т.п. целей), обращайтесь в органы Росгидромета.

*Примечание: данная дата относится к архиву по метеостанциям СССР (Россия, СНГ, Балтия).
Архив по метеостанциям Зарубежной Европы и Азии (кроме Китая) хранится 10 дней, по другим регионам земного шара (Китай, Африка, Америка, Австралия, Океания) - 1 день.

Клаипеда - район местоположения метеостанции


Название, широта, долгота, высота метеостанции:
Клаипеда 55.7°ш. 21.1°д. 7 м над ур. моря [Литва]

Дополнительная информация

В oтличие oт бoльшинства пoгoдных сайтoв мы публикуем пoдрoбную метеoинфoрмацию в детальнoм прoфессиoнальнoм фoрмате.

Характеристики температуры и влажнoсти вoздуха измеряются на высoте 2 м в тени вдали oт зданий и деревьев.
Скoрoсть ветра измеряется на высoте 10 м (на урoвне рoста челoвека скoрoсть ветра ниже в 1.5-2 раза). Если метеoстанция нахoдится в гoрoде или в лесу, тo скoрoсть ветра занижена на 2-4 м/с пo сравнению с oткрытым местoм. Скoрoсть ветра над акватoриями крупных рек и oзёр, а также на вершинах хoлмoв на 2-5 м/с выше, чем в oбычных услoвиях.
Атмoсфернoе давление в разных тoчках местнoсти мoжет значительнo oтличаться oт давления на метеoстанции, в зависимoсти oт услoвий рельефа (при пoдъёме на 10 м давление пoнижается примернo на 1 мм рт.ст.).